This is the latest recevied weather packets stored in our database for station/object KC5TIL-3. If no packets are shown the sender has not sent any weather packets the latest 10 day(s).
| Time | Temp. | Humidity | Pressure | Rain* | Wind** | Luminosity | Snow |
|---|---|---|---|---|---|---|---|
| 1787577983 | 29.44° C | 19% | 1011.8 hPa | 0 mm | 3.58 m/s, 175° | - | - |
| 1787577685 | 29.44° C | 19% | 1011.8 hPa | 0 mm | 2.68 m/s, 219° | - | - |
| 1787577386 | 28.89° C | 19% | 1011.8 hPa | 0 mm | 3.13 m/s, 204° | - | - |
| 1787577080 | 28.89° C | 19% | 1011.8 hPa | 0 mm | 3.58 m/s, 209° | - | - |
| 1787576782 | 28.89° C | 19% | 1011.8 hPa | 0 mm | 3.13 m/s, 205° | - | - |
| 1787576484 | 28.89° C | 19% | 1011.8 hPa | 0 mm | 3.13 m/s, 207° | - | - |
| 1787576183 | 28.89° C | 19% | 1011.8 hPa | 0 mm | 2.68 m/s, 235° | - | - |
| 1787575884 | 28.89° C | 19% | 1011.8 hPa | 0 mm | 3.58 m/s, 202° | - | - |
| 1787575586 | 28.89° C | 19% | 1010.8 hPa | 0 mm | 3.13 m/s, 224° | - | - |
| 1787575285 | 28.89° C | 19% | 1010.8 hPa | 0 mm | 2.24 m/s, 217° | - | - |
| 1787574987 | 28.89° C | 19% | 1010.8 hPa | 0 mm | 2.24 m/s, 202° | - | - |
| 1787574689 | 28.33° C | 19% | 1010.8 hPa | 0 mm | 4.02 m/s, 223° | - | - |
| 1787574387 | 28.33° C | 19% | 1010.8 hPa | 0 mm | 3.13 m/s, 187° | - | - |
| 1787574085 | 28.89° C | 19% | 1010.8 hPa | 0 mm | 2.68 m/s, 227° | - | - |
| 1787573786 | 28.89° C | 19% | 1010.8 hPa | 0 mm | 3.58 m/s, 220° | - | - |
| 1787573485 | 28.89° C | 19% | 1010.8 hPa | 0 mm | 3.13 m/s, 189° | - | - |
| 1787573187 | 28.89° C | 19% | 1010.8 hPa | 0 mm | 2.68 m/s, 214° | - | - |
| 1787572889 | 28.89° C | 19% | 1010.8 hPa | 0 mm | 4.02 m/s, 189° | - | - |
| 1787572587 | 28.89° C | 19% | 1010.8 hPa | 0 mm | 3.13 m/s, 204° | - | - |
| 1787572289 | 28.89° C | 19% | 1010.8 hPa | 0 mm | 2.68 m/s, 234° | - | - |
| 1787571991 | 28.89° C | 19% | 1010.8 hPa | 0 mm | 4.02 m/s, 201° | - | - |
| 1787571690 | 28.89° C | 19% | 1010.8 hPa | 0 mm | 3.13 m/s, 212° | - | - |
| 1787571391 | 28.89° C | 19% | 1010.8 hPa | 0 mm | 3.13 m/s, 201° | - | - |
| 1787571093 | 28.89° C | 19% | 1010.8 hPa | 0 mm | 3.58 m/s, 214° | - | - |
| 1787570792 | 28.89° C | 19% | 1010.8 hPa | 0 mm | 3.58 m/s, 210° | - | - |
* Rain latest hour (hover to see other rain measurements)
** Current wind speed in m/s (hover to see current wind gust speed)